Temperature
21 19 18 19 19 20 20 19 19 19 20 20 19 18 18 18 18 18 18 18 18 18 17 17 17 17 17 16 16 16 16 16 16 16 16 15 15 15 15 15 15 15 15 15
18 19 20 21 21 21 20 19 19 20 20 20 18 18 18 18 18 18 18 17 17 18 17 17 17 17 17 16 16 16 16 16 16 15 15 15 15 15 15 15 15 15 14 14
19 20 21 22 21 20 20 19 19 19 20 20 19 18 18 18 18 18 18 17 17 17 17 17 17 16 16 16 16 16 16 15 15 15 15 15 15 15 15 15 15 14 14 14
20 21 21 21 21 20 19 21 21 20 19 17 19 16 17 17 17 17 17 17 17 17 17 17 17 16 16 16 16 16 16 15 15 15 15 15 15 15 15 15 14 14 14 14
19 21 21 21 21 21 20 21 21 20 18 17 17 16 16 16 16 16 16 17 17 17 17 17 17 16 16 16 16 16 15 15 15 15 15 15 15 15 15 14 14 14 14 14
20 21 21 21 21 21 21 20 19 17 16 17 17 17 16 16 17 17 16 17 17 17 17 17 16 16 16 16 16 15 15 15 15 15 15 15 15 14 14 14 14 14 14 14
19 20 21 21 21 20 19 17 16 16 15 16 17 16 16 17 17 17 17 17 17 17 17 16 16 16 16 16 15 15 15 15 15 14 14 14 14 14 14 14 14 14 14 14
18 18 20 21 20 19 19 17 16 16 16 16 16 16 16 18 18 18 18 18 17 17 16 16 16 16 16 15 15 15 15 15 15 14 14 14 14 14 14 14 14 13 13 13
17 18 20 20 20 20 19 17 17 16 16 16 15 16 17 17 17 17 17 17 16 16 16 16 16 16 15 15 15 15 15 14 14 14 14 14 14 14 14 13 13 13 13 13
17 18 19 20 20 20 19 18 15 16 16 16 16 16 16 16 16 16 16 16 16 16 16 16 16 16 15 15 15 15 15 14 14 14 14 14 14 13 13 13 13 13 13 13
17 17 17 18 19 18 19 18 16 15 15 15 15 15 17 16 16 16 15 16 16 16 15 15 15 15 15 15 15 15 14 14 14 14 14 14 13 13 13 13 13 13 13 13
16 14 15 17 18 18 18 18 16 16 15 15 14 15 17 16 16 16 16 16 16 16 16 15 15 15 15 14 14 14 14 14 14 14 13 13 13 13 13 13 13 12 12 12
15 14 15 16 16 17 18 18 17 15 14 14 14 15 16 15 15 15 15 15 15 15 15 15 15 15 14 14 14 14 14 13 13 13 13 13 13 13 13 13 12 12 12 12
15 14 14 15 16 16 17 17 17 16 14 14 14 15 15 14 14 14 15 15 15 15 15 14 14 14 14 14 14 13 13 13 13 13 13 13 12 12 12 12 12 12 12 12
14 14 15 15 16 16 16 16 17 16 15 14 15 14 14 14 14 14 14 14 14 14 14 14 14 14 13 13 13 13 13 13 12 12 12 12 12 12 12 12 12 12 12 11
13 14 15 15 16 16 16 16 16 16 15 15 14 14 14 14 14 14 14 13 13 13 13 13 13 13 13 13 13 13 12 12 12 12 12 12 12 12 12 12 11 11 11 11
12 13 13 14 15 15 14 14 15 15 14 14 14 13 13 13 13 13 13 13 13 13 13 13 13 13 13 13 13 12 12 12 12 12 11 11 11 11 11 11 11 11 11 11
12 12 11 12 14 14 14 14 14 14 14 14 13 13 13 13 13 14 14 13 13 13 13 13 13 13 13 12 12 12 12 12 11 11 11 11 11 11 11 11 11 11 11 10
12 12 11 12 13 13 14 14 14 14 13 13 12 13 13 13 13 12 13 13 13 13 12 12 12 12 12 12 12 12 12 11 11 11 11 11 10 10 10 10 10 10 10 10
11 11 11 11 13 13 13 13 14 14 12 12 12 12 12 12 10 11 12 12 13 13 12 12 12 12 12 12 12 11 11 11 11 11 10 10 10 10 10 10 10 10 10 10
12 11 10 11 11 11 12 13 14 13 12 12 12 12 12 12 12 12 12 12 12 12 12 12 12 12 11 11 11 11 11 11 11 10 10 10 10 10 9 9 9 9 9 9
10 10 10 10 11 11 12 12 11 11 12 12 13 13 13 13 13 12 12 12 12 12 11 11 11 11 11 11 11 11 10 10 10 10 10 9 9 9 9 9 9 9 9 9
9 10 9 10 10 11 12 12 13 13 12 12 12 13 13 12 12 12 12 11 11 11 11 11 11 10 10 10 10 10 10 10 9 9 9 9 9 9 9 9 9 9 8 8
9 9 9 9 10 11 12 12 12 12 12 12 12 12 12 12 11 11 11 11 11 10 10 10 10 10 10 10 10 10 10 9 9 9 9 9 9 9 8 8 8 8 8 8
9 9 9 9 10 10 11 12 12 12 12 12 12 12 12 12 11 11 10 10 10 10 10 10 10 9 9 9 9 9 9 9 9 8 8 8 8 8 8 8 8 8 8 8
9 9 9 9 10 9 11 11 11 11 11 11 11 11 11 11 11 10 10 10 10 10 9 9 9 9 9 9 9 8 8 8 8 8 8 8 8 8 7 7 7 7 7 7
Wind_Speed
1 4 3 6 8 7 6 5 4 5 5 5 6 5 7 8 8 8 8 8 8 8 7 6 7 6 6 6 6 5 4 3 4 3 3 3 2 2 2 3 4 5 5 5
3 3 7 5 5 5 5 4 3 3 4 5 5 5 6 7 9 10 11 10 9 7 6 6 6 6 5 5 5 5 5 4 4 3 2 2 2 1 1 2 3 4 5 5
6 6 4 3 3 3 4 6 6 5 2 1 4 2 3 4 4 5 7 9 8 10 9 7 6 5 6 6 5 5 5 5 4 4 3 3 3 3 3 3 2 2 3 4
3 4 3 4 4 5 4 6 5 4 3 3 4 3 6 5 4 5 6 7 8 8 8 8 7 6 7 6 6 6 5 5 4 4 4 4 3 2 1 0 0 1 2 3
4 3 4 4 5 5 6 4 3 3 4 1 0 3 5 3 4 6 8 8 8 8 9 9 8 8 7 6 6 5 5 4 4 5 5 5 3 1 1 1 2 2 2 1
5 3 5 6 4 4 3 3 4 4 3 2 5 4 5 4 8 7 7 8 8 8 8 8 7 6 5 4 5 5 5 4 3 4 5 5 4 3 3 2 1 1 2 1
2 4 3 3 2 1 4 5 2 3 2 5 2 3 5 5 7 9 9 9 8 8 9 8 7 6 6 5 5 5 5 4 4 4 4 4 4 4 4 2 1 0 1 1
3 5 4 2 5 5 4 8 7 4 4 3 1 4 5 4 5 5 6 8 8 8 8 8 9 8 7 7 6 5 6 5 4 4 4 4 4 3 3 3 2 2 1 1
5 6 4 3 3 6 4 4 8 6 2 2 3 3 3 1 2 3 5 6 7 8 8 7 7 7 7 7 7 7 6 5 4 4 4 3 3 3 3 3 2 2 1 1
4 2 4 2 2 0 4 6 5 4 4 3 3 4 5 6 6 5 5 6 7 7 7 6 6 6 6 6 5 5 6 6 5 4 4 3 3 3 4 3 2 2 1 1
2 3 3 1 3 5 2 2 4 4 5 5 4 6 5 9 8 7 6 6 7 7 7 7 6 5 5 4 4 4 3 3 3 3 3 3 2 3 3 3 2 2 1 1
2 4 2 5 5 3 5 6 5 4 3 5 4 6 3 5 6 6 5 5 6 6 7 7 6 5 4 4 3 4 4 3 3 3 3 3 2 2 2 2 2 2 2 1
2 4 1 4 4 2 1 2 4 4 4 4 5 5 2 3 3 3 4 4 4 5 5 5 5 5 5 5 4 4 3 3 3 2 3 3 2 2 3 3 2 2 2 1
3 3 5 7 6 3 2 3 2 4 4 4 6 5 3 1 2 3 3 4 4 5 5 5 5 4 4 4 4 4 3 3 3 2 2 3 2 2 3 2 2 2 2 2
3 2 4 5 4 2 3 4 4 4 6 7 6 6 6 5 5 5 5 4 4 4 4 4 5 4 4 3 3 3 3 3 3 3 2 2 3 2 2 2 2 2 2 2
2 2 1 2 2 1 2 3 3 3 3 4 3 2 3 3 3 3 3 5 5 4 4 4 4 4 4 5 4 4 3 3 3 3 3 2 2 2 2 2 2 2 2 1
1 2 1 3 2 2 3 3 3 3 2 4 5 4 1 3 4 4 4 5 5 5 4 5 5 4 4 5 5 5 4 4 3 3 2 1 2 2 2 2 2 2 2 2
4 3 2 1 2 3 4 2 2 4 2 1 2 3 3 4 3 3 3 4 3 4 4 4 4 3 3 3 3 3 3 4 4 2 2 2 2 2 2 2 2 3 2 2
4 5 3 2 2 3 4 3 1 3 1 2 2 3 2 4 5 3 2 1 2 3 3 3 3 3 2 2 3 3 3 3 3 3 3 3 3 2 2 3 3 3 3 2
4 4 4 3 3 4 5 5 3 3 1 3 1 3 3 5 2 3 2 1 0 1 1 1 1 2 2 2 3 4 3 3 3 3 4 3 3 3 4 4 4 3 3 3
2 2 3 3 3 4 5 4 3 3 5 3 2 3 4 4 4 3 1 1 1 2 2 2 3 2 2 3 4 3 3 3 4 3 3 3 3 3 4 3 3 2 2 2
3 2 2 3 3 5 3 3 3 4 2 1 2 3 3 3 2 2 2 2 3 3 2 3 3 2 1 2 4 3 3 3 2 1 2 2 2 3 2 2 2 2 2 2
2 4 3 5 5 3 1 2 1 2 2 1 1 1 4 4 2 2 2 2 2 2 2 2 3 2 1 1 3 3 3 2 1 1 1 2 2 2 1 2 2 1 2 2
2 1 3 1 2 1 1 1 2 1 2 1 2 2 4 3 3 2 1 1 1 1 1 1 2 2 1 1 1 3 2 2 2 2 2 2 1 1 1 1 2 2 3 3
3 1 2 1 2 1 2 1 0 1 2 3 3 2 2 3 2 2 2 1 2 1 1 1 2 2 1 1 2 2 2 2 2 2 2 2 2 2 2 2 2 3 4 4
3 4 4 5 5 4 4 3 2 2 2 2 2 2 1 2 3 3 2 1 2 2 1 1 1 1 1 1 1 2 2 2 2 2 2 2 2 2 2 2 3 4 3 5
Wind_Direction
126 106 192 202 187 179 163 155 182 222 208 159 188 198 202 191 172 172 174 176 180 180 178 162 155 149 140 134 129 131 122 119 110 92 85 85 67 53 58 78 91 93 99 106
60 220 223 203 179 160 161 163 201 238 219 176 191 209 210 198 190 185 181 182 185 178 167 165 151 143 144 145 140 136 133 127 120 121 126 125 127 97 84 69 66 82 93 103
184 228 217 184 170 164 189 184 200 206 214 151 134 266 243 225 197 184 177 175 176 172 170 165 153 148 150 154 154 145 140 134 125 119 103 81 63 47 42 41 30 52 96 97
214 234 192 187 198 176 209 207 196 188 150 242 169 212 258 221 199 192 188 174 179 175 168 167 160 160 166 173 165 150 145 137 130 123 119 120 116 118 175 174 18 11 64 93
227 206 175 195 213 190 205 199 200 190 170 231 183 162 266 209 209 212 198 188 185 180 171 170 170 170 169 166 163 156 146 139 139 133 135 132 121 131 96 53 55 27 9 53
229 223 188 204 212 194 172 80 37 48 86 250 228 174 255 217 205 201 199 193 182 179 174 174 170 159 156 148 144 147 145 148 148 142 141 141 139 127 101 69 49 13 352 345
284 279 242 181 147 332 102 97 42 357 350 247 242 169 238 229 204 193 188 187 182 173 170 167 162 160 162 157 156 151 148 156 159 153 152 158 155 149 149 148 147 100 0 331
202 256 249 186 178 192 184 147 160 195 219 263 317 215 241 232 200 181 173 170 166 164 166 170 173 173 172 169 166 159 155 159 167 167 173 172 166 162 168 172 171 178 204 246
185 237 265 235 188 158 159 179 173 157 192 206 255 263 286 236 131 140 143 144 156 166 168 170 173 177 176 175 175 171 168 166 171 176 174 173 176 176 180 184 178 185 208 228
157 210 267 274 53 299 168 158 112 139 176 231 252 226 218 212 192 172 165 167 169 167 168 171 174 174 177 180 178 169 169 176 178 179 180 185 193 189 186 180 187 199 212 206
107 156 284 342 199 214 182 148 130 144 165 172 226 256 223 195 189 184 189 187 176 170 171 173 175 175 169 156 151 152 164 164 174 181 180 173 188 185 180 186 199 200 202 188
62 120 223 257 264 220 186 183 153 161 217 174 183 258 301 178 170 170 179 180 174 170 168 168 168 162 157 159 161 162 167 168 180 182 172 173 179 178 180 191 197 190 182 191
81 104 76 332 329 356 181 183 159 145 139 167 182 246 347 80 122 148 156 163 161 158 155 157 157 164 172 177 179 177 175 173 170 160 159 163 168 175 191 198 194 180 165 164
102 122 178 203 221 219 256 263 198 141 172 209 214 220 271 220 165 159 146 153 158 151 147 150 163 176 183 182 183 181 183 176 165 159 159 174 186 188 191 186 169 163 158 161
92 163 216 228 238 206 222 251 238 211 198 195 218 209 232 219 191 174 160 148 136 143 150 159 171 177 176 174 186 185 182 175 165 156 164 191 203 191 170 172 170 162 159 168
76 162 244 276 237 249 285 268 235 229 203 188 166 236 248 204 149 135 156 147 145 161 175 174 171 175 183 183 187 184 179 177 163 161 179 191 185 178 183 190 182 169 184 187
116 134 117 260 274 21 292 263 211 174 152 168 193 220 193 121 141 156 158 156 164 175 183 186 188 193 198 196 187 183 186 174 161 167 176 188 185 194 205 204 186 192 205 197
158 141 147 197 69 223 247 301 144 120 60 101 136 144 150 144 146 134 132 144 168 182 189 196 199 197 197 188 180 177 168 164 168 176 193 207 202 215 220 197 207 220 220 208
158 148 138 142 183 257 292 297 184 154 29 14 109 130 125 95 74 24 16 108 174 190 190 197 200 197 181 171 171 152 149 161 171 192 211 218 212 216 219 214 222 223 218 221
70 91 120 131 166 226 263 292 305 116 293 312 112 132 128 95 97 276 297 48 73 141 141 154 163 143 148 165 155 149 162 167 199 218 224 220 214 216 222 223 224 224 220 229
48 59 120 157 200 256 276 306 69 143 249 260 167 156 144 153 196 215 178 99 115 117 112 111 115 135 164 160 143 153 170 204 223 228 222 212 215 222 223 218 220 222 225 237
158 159 178 149 178 257 287 106 157 217 230 169 159 164 150 154 132 109 107 115 114 93 89 106 105 102 149 151 145 160 208 232 231 215 221 228 227 232 237 215 222 214 201 222
178 188 183 180 201 247 217 163 188 140 143 169 160 188 142 133 128 118 112 115 123 115 109 111 118 106 35 171 159 178 226 227 189 189 228 248 246 245 237 215 221 227 210 218
295 111 128 173 263 267 223 81 54 95 124 140 137 135 136 139 143 132 117 111 123 118 121 118 111 100 359 296 223 210 219 193 177 205 230 235 231 263 266 238 222 220 221 225
237 156 136 206 257 338 314 270 215 56 75 79 78 89 137 138 140 152 147 156 166 147 139 131 142 163 233 271 263 256 229 181 191 217 228 236 231 231 254 260 242 235 233 224
218 181 177 217 220 193 239 251 213 153 140 138 112 87 98 143 159 153 155 162 160 163 154 130 136 180 247 264 296 298 251 200 199 226 233 227 226 238 245 269 305 296 271 269
Height
1496 1502 1507 1505 1504 1506 1509 1514 1518 1515 1509 1513 1517 1518 1517 1516 1518 1519 1521 1522 1524 1525 1527 1528 1529 1530 1531 1531 1532 1532 1533 1533 1533 1533 1533 1533 1534 1534 1535 1535 1535 1535 1535 1535
1502 1504 1499 1497 1499 1503 1507 1514 1516 1512 1508 1512 1517 1518 1515 1515 1516 1516 1518 1520 1521 1523 1526 1527 1528 1529 1530 1531 1531 1532 1532 1533 1533 1533 1534 1534 1534 1535 1535 1535 1535 1535 1535 1535
1502 1499 1494 1497 1500 1505 1508 1512 1513 1514 1510 1511 1516 1521 1518 1515 1515 1516 1516 1518 1519 1521 1523 1525 1527 1528 1529 1529 1530 1531 1532 1532 1533 1533 1534 1534 1534 1534 1534 1535 1535 1535 1535 1535
1497 1494 1494 1497 1500 1502 1510 1504 1506 1509 1517 1523 1519 1535 1522 1516 1515 1515 1516 1517 1518 1520 1521 1523 1525 1526 1527 1528 1529 1530 1531 1532 1532 1533 1533 1533 1533 1534 1534 1534 1535 1535 1535 1535
1497 1493 1495 1498 1498 1498 1502 1499 1503 1507 1515 1522 1521 1531 1526 1516 1517 1515 1513 1514 1515 1517 1519 1520 1522 1524 1526 1527 1528 1529 1530 1531 1532 1532 1533 1533 1533 1533 1534 1534 1534 1534 1534 1534
1493 1490 1491 1493 1492 1494 1496 1501 1507 1514 1521 1531 1522 1528 1528 1517 1512 1511 1511 1511 1513 1515 1517 1519 1521 1523 1524 1526 1527 1528 1529 1530 1531 1531 1532 1532 1532 1533 1533 1533 1533 1533 1534 1534
1497 1493 1490 1490 1495 1496 1499 1514 1530 1532 1537 1533 1519 1523 1522 1508 1504 1505 1506 1508 1510 1512 1514 1517 1519 1520 1522 1524 1525 1526 1528 1528 1529 1530 1531 1531 1532 1532 1532 1532 1533 1532 1532 1532
1506 1506 1492 1489 1493 1499 1500 1510 1529 1538 1539 1532 1522 1525 1515 1503 1501 1502 1504 1506 1509 1511 1512 1514 1516 1518 1520 1522 1523 1525 1526 1527 1528 1529 1529 1530 1531 1531 1531 1531 1532 1532 1531 1531
1504 1503 1490 1488 1488 1492 1500 1507 1508 1522 1525 1532 1528 1519 1509 1502 1502 1502 1503 1505 1507 1509 1510 1512 1514 1516 1518 1520 1521 1523 1524 1525 1526 1527 1528 1529 1529 1529 1530 1530 1530 1530 1530 1530
1496 1501 1493 1488 1488 1490 1493 1499 1512 1521 1530 1535 1527 1521 1517 1507 1504 1503 1503 1504 1505 1507 1509 1510 1512 1514 1516 1518 1519 1521 1522 1523 1524 1525 1526 1527 1527 1528 1528 1529 1528 1528 1528 1528
1493 1501 1499 1494 1494 1497 1497 1500 1506 1517 1520 1531 1533 1525 1501 1500 1500 1501 1501 1502 1503 1505 1507 1509 1511 1512 1514 1516 1518 1519 1520 1521 1522 1523 1524 1525 1525 1526 1526 1527 1527 1527 1527 1527
1495 1503 1507 1499 1491 1489 1492 1496 1504 1516 1519 1520 1527 1522 1496 1496 1497 1498 1500 1501 1502 1504 1505 1507 1509 1511 1513 1514 1516 1517 1518 1519 1520 1521 1522 1522 1523 1524 1524 1524 1525 1525 1525 1525
1495 1504 1512 1509 1503 1495 1493 1493 1497 1505 1514 1520 1524 1518 1498 1497 1498 1498 1499 1500 1501 1503 1504 1506 1508 1509 1511 1512 1513 1514 1515 1516 1517 1518 1519 1520 1520 1521 1521 1522 1522 1523 1523 1522
1493 1502 1508 1510 1505 1498 1498 1495 1494 1502 1513 1515 1512 1508 1502 1500 1499 1499 1499 1500 1501 1502 1503 1505 1506 1507 1509 1510 1511 1512 1513 1514 1515 1516 1516 1517 1517 1518 1519 1520 1520 1520 1520 1520
1494 1502 1499 1498 1495 1495 1496 1495 1493 1497 1500 1507 1504 1503 1501 1499 1498 1498 1498 1499 1501 1501 1502 1503 1504 1505 1507 1508 1509 1510 1511 1511 1512 1513 1514 1514 1515 1516 1517 1517 1517 1518 1517 1517
1496 1500 1498 1497 1493 1495 1496 1495 1494 1495 1496 1499 1500 1502 1497 1497 1497 1497 1498 1498 1499 1500 1501 1502 1503 1504 1505 1505 1507 1508 1508 1509 1510 1510 1511 1512 1513 1513 1514 1514 1515 1515 1515 1515
1498 1501 1504 1504 1496 1497 1503 1497 1495 1496 1495 1496 1501 1500 1496 1496 1496 1497 1497 1497 1498 1499 1499 1500 1501 1501 1502 1504 1504 1505 1506 1507 1507 1508 1509 1509 1510 1510 1510 1511 1511 1512 1512 1512
1497 1501 1506 1506 1503 1509 1502 1493 1492 1494 1495 1494 1494 1494 1494 1494 1495 1496 1496 1496 1497 1498 1498 1498 1499 1500 1501 1502 1503 1503 1504 1505 1505 1505 1506 1507 1507 1507 1507 1508 1508 1508 1509 1509
1491 1497 1504 1508 1509 1505 1499 1493 1493 1495 1497 1495 1494 1494 1494 1493 1494 1496 1496 1496 1496 1496 1496 1497 1497 1498 1499 1500 1501 1502 1502 1503 1503 1503 1503 1504 1504 1504 1505 1505 1505 1505 1506 1506
1492 1494 1503 1508 1508 1510 1502 1493 1490 1493 1499 1495 1494 1494 1494 1494 1499 1499 1496 1496 1495 1495 1495 1495 1496 1497 1497 1498 1499 1500 1500 1500 1500 1500 1501 1501 1502 1502 1502 1502 1502 1503 1503 1503
1499 1502 1506 1508 1509 1506 1497 1492 1491 1503 1502 1495 1494 1493 1494 1495 1496 1496 1495 1494 1494 1494 1494 1495 1495 1495 1495 1496 1497 1497 1498 1497 1498 1498 1499 1499 1499 1499 1499 1499 1500 1500 1500 1500
1502 1504 1507 1509 1511 1508 1494 1493 1497 1497 1493 1493 1493 1493 1493 1494 1494 1494 1493 1493 1493 1493 1493 1493 1493 1493 1494 1495 1495 1495 1495 1495 1496 1496 1496 1496 1496 1497 1497 1496 1497 1497 1497 1497
1500 1500 1501 1502 1503 1496 1493 1493 1493 1493 1493 1493 1492 1493 1492 1492 1492 1492 1492 1492 1492 1492 1492 1492 1492 1492 1493 1493 1493 1493 1493 1493 1493 1494 1494 1493 1493 1494 1494 1493 1493 1493 1493 1493
1497 1495 1497 1498 1496 1494 1493 1492 1492 1492 1492 1492 1492 1491 1491 1491 1491 1491 1491 1491 1491 1491 1491 1491 1491 1490 1491 1491 1491 1492 1491 1491 1491 1491 1491 1491 1490 1490 1490 1490 1490 1490 1489 1489
1495 1495 1497 1497 1494 1493 1492 1492 1492 1492 1492 1492 1491 1491 1490 1490 1490 1490 1490 1489 1490 1490 1490 1490 1489 1489 1489 1489 1489 1489 1489 1489 1489 1488 1488 1488 1488 1487 1487 1487 1487 1486 1486 1486
1493 1494 1495 1495 1491 1492 1491 1491 1491 1491 1491 1490 1490 1490 1490 1489 1489 1489 1489 1488 1488 1488 1488 1488 1488 1488 1487 1487 1487 1487 1487 1486 1486 1485 1485 1485 1485 1484 1484 1483 1483 1483 1483 1483